QPF
0.00 0.00 0.00 0.00 0.00 0.00 0.00 0.00 0.00 0.00 0.00 0.00 0.00 0.00 0.00 0.00 0.00 0.00 0.00 0.00 0.00 0.00 0.00 0.00 0.00 0.00 0.00 0.00 0.00 0.00 0.00 0.00 0.00 0.00 0.00 0.00 0.00 0.00 0.00 0.00 0.00 0.00 0.00
0.00 0.00 0.00 0.00 0.00 0.00 0.00 0.00 0.00 0.00 0.00 0.00 0.00 0.00 0.00 0.00 0.00 0.00 0.00 0.00 0.00 0.00 0.00 0.00 0.00 0.00 0.00 0.00 0.00 0.00 0.00 0.00 0.00 0.00 0.00 0.00 0.00 0.00 0.00 0.00 0.00 0.00 0.00
0.00 0.00 0.00 0.00 0.00 0.00 0.00 0.00 0.00 0.00 0.00 0.00 0.00 0.00 0.00 0.00 0.00 0.00 0.00 0.00 0.00 0.00 0.00 0.00 0.00 0.00 0.00 0.00 0.00 0.00 0.00 0.00 0.00 0.00 0.00 0.00 0.00 0.01 0.00 0.00 0.00 0.00 0.00
0.00 0.00 0.00 0.00 0.00 0.00 0.00 0.00 0.00 0.00 0.00 0.00 0.00 0.00 0.00 0.00 0.00 0.00 0.00 0.00 0.00 0.00 0.00 0.00 0.00 0.00 0.00 0.00 0.00 0.00 0.00 0.00 0.00 0.00 0.00 0.00 0.00 0.00 0.02 0.02 0.03 0.01 0.00
0.00 0.00 0.00 0.00 0.00 0.00 0.00 0.00 0.00 0.00 0.00 0.00 0.00 0.00 0.00 0.00 0.00 0.00 0.00 0.00 0.00 0.00 0.00 0.00 0.00 0.00 0.00 0.00 0.00 0.00 0.00 0.00 0.00 0.00 0.00 0.00 0.00 0.00 0.00 0.01 0.02 0.02 0.01
0.01 0.00 0.00 0.00 0.00 0.00 0.00 0.00 0.00 0.00 0.00 0.00 0.00 0.00 0.00 0.00 0.00 0.00 0.00 0.00 0.00 0.00 0.00 0.00 0.00 0.00 0.00 0.00 0.00 0.00 0.00 0.00 0.00 0.00 0.00 0.00 0.00 0.00 0.00 0.00 0.00 0.01 0.01
0.01 0.01 0.00 0.00 0.00 0.00 0.00 0.00 0.00 0.00 0.00 0.00 0.00 0.00 0.00 0.00 0.00 0.00 0.00 0.00 0.00 0.00 0.00 0.00 0.00 0.00 0.00 0.00 0.00 0.00 0.00 0.00 0.00 0.00 0.00 0.00 0.00 0.00 0.00 0.01 0.00 0.00 0.00
0.00 0.01 0.00 0.00 0.00 0.00 0.00 0.00 0.00 0.00 0.00 0.00 0.00 0.00 0.00 0.00 0.00 0.00 0.00 0.00 0.00 0.00 0.00 0.00 0.01 0.02 0.01 0.00 0.00 0.00 0.00 0.00 0.00 0.00 0.00 0.00 0.00 0.00 0.00 0.01 0.03 0.00 0.00
0.00 0.00 0.00 0.00 0.00 0.00 0.00 0.00 0.00 0.00 0.00 0.00 0.00 0.00 0.00 0.00 0.00 0.00 0.00 0.00 0.00 0.00 0.00 0.00 0.01 0.02 0.03 0.03 0.01 0.00 0.00 0.00 0.00 0.00 0.00 0.00 0.00 0.00 0.00 0.04 0.06 0.01 0.00
0.00 0.00 0.00 0.00 0.00 0.00 0.00 0.00 0.00 0.00 0.00 0.00 0.00 0.00 0.00 0.00 0.00 0.00 0.00 0.00 0.00 0.00 0.00 0.00 0.00 0.00 0.00 0.00 0.00 0.00 0.02 0.02 0.00 0.00 0.00 0.00 0.00 0.00 0.00 0.00 0.03 0.01 0.00
0.00 0.00 0.00 0.00 0.00 0.00 0.00 0.00 0.00 0.00 0.00 0.00 0.00 0.00 0.00 0.00 0.00 0.00 0.00 0.00 0.00 0.00 0.00 0.00 0.00 0.00 0.00 0.00 0.00 0.00 0.02 0.02 0.00 0.00 0.00 0.00 0.00 0.00 0.00 0.00 0.00 0.03 0.00
0.00 0.00 0.00 0.00 0.00 0.00 0.00 0.00 0.00 0.00 0.00 0.00 0.00 0.00 0.00 0.00 0.00 0.00 0.00 0.00 0.00 0.00 0.00 0.00 0.00 0.00 0.01 0.00 0.00 0.00 0.00 0.00 0.00 0.00 0.00 0.00 0.00 0.00 0.00 0.00 0.00 0.01 0.00
0.00 0.00 0.00 0.00 0.00 0.00 0.00 0.00 0.00 0.00 0.00 0.00 0.00 0.00 0.00 0.00 0.00 0.00 0.00 0.00 0.00 0.00 0.00 0.00 0.00 0.00 0.00 0.00 0.00 0.00 0.00 0.00 0.00 0.00 0.00 0.00 0.00 0.00 0.00 0.00 0.00 0.00 0.00
0.00 0.00 0.00 0.00 0.00 0.00 0.00 0.00 0.00 0.00 0.00 0.00 0.00 0.00 0.00 0.00 0.00 0.00 0.00 0.00 0.00 0.00 0.00 0.00 0.00 0.00 0.00 0.00 0.00 0.00 0.00 0.00 0.00 0.00 0.01 0.04 0.05 0.03 0.00 0.00 0.03 0.01 0.02
0.00 0.00 0.00 0.00 0.00 0.00 0.00 0.00 0.00 0.00 0.00 0.00 0.00 0.00 0.00 0.00 0.00 0.00 0.00 0.00 0.00 0.00 0.00 0.00 0.00 0.00 0.00 0.00 0.00 0.00 0.00 0.00 0.00 0.00 0.00 0.01 0.02 0.00 0.00 0.00 0.01 0.11 0.17
0.00 0.00 0.00 0.00 0.00 0.00 0.00 0.00 0.00 0.00 0.00 0.00 0.00 0.00 0.00 0.00 0.00 0.00 0.00 0.00 0.00 0.00 0.00 0.00 0.00 0.00 0.00 0.00 0.00 0.00 0.00 0.00 0.00 0.00 0.00 0.00 0.00 0.00 0.00 0.01 0.02 0.09 0.21
0.00 0.00 0.00 0.00 0.00 0.00 0.00 0.00 0.00 0.00 0.00 0.00 0.00 0.00 0.00 0.00 0.00 0.00 0.00 0.00 0.00 0.00 0.00 0.00 0.00 0.00 0.00 0.00 0.00 0.00 0.00 0.00 0.00 0.00 0.00 0.00 0.00 0.00 0.00 0.00 0.00 0.00 0.05
0.00 0.00 0.00 0.00 0.00 0.00 0.00 0.00 0.00 0.00 0.00 0.00 0.00 0.00 0.00 0.00 0.00 0.00 0.00 0.00 0.00 0.00 0.00 0.00 0.00 0.00 0.00 0.00 0.00 0.00 0.00 0.00 0.00 0.00 0.00 0.00 0.00 0.00 0.00 0.00 0.00 0.00 0.01
0.00 0.00 0.00 0.00 0.00 0.00 0.00 0.00 0.00 0.00 0.00 0.00 0.00 0.00 0.00 0.00 0.00 0.00 0.00 0.00 0.00 0.00 0.00 0.00 0.00 0.00 0.00 0.00 0.00 0.00 0.00 0.00 0.00 0.00 0.00 0.00 0.00 0.00 0.00 0.00 0.00 0.00 0.00
0.00 0.00 0.00 0.00 0.00 0.00 0.00 0.00 0.00 0.00 0.00 0.00 0.00 0.00 0.00 0.00 0.00 0.00 0.00 0.00 0.00 0.00 0.00 0.00 0.00 0.00 0.00 0.00 0.00 0.00 0.00 0.00 0.00 0.00 0.00 0.00 0.00 0.00 0.00 0.00 0.00 0.00 0.00
0.00 0.00 0.00 0.00 0.00 0.00 0.00 0.00 0.00 0.00 0.00 0.00 0.00 0.00 0.00 0.00 0.00 0.00 0.00 0.00 0.00 0.00 0.00 0.00 0.00 0.00 0.00 0.00 0.00 0.00 0.00 0.00 0.00 0.00 0.00 0.00 0.00 0.00 0.00 0.00 0.00 0.00 0.00
0.00 0.00 0.00 0.00 0.00 0.00 0.00 0.00 0.00 0.00 0.00 0.00 0.00 0.00 0.00 0.00 0.00 0.00 0.00 0.00 0.00 0.00 0.00 0.00 0.00 0.00 0.00 0.00 0.00 0.00 0.00 0.00 0.00 0.00 0.00 0.00 0.00 0.00 0.00 0.00 0.00 0.00 0.00
0.00 0.00 0.00 0.00 0.00 0.00 0.00 0.00 0.00 0.00 0.00 0.00 0.00 0.00 0.00 0.00 0.00 0.00 0.00 0.00 0.00 0.00 0.00 0.00 0.00 0.00 0.00 0.00 0.00 0.00 0.00 0.00 0.00 0.00 0.00 0.00 0.00 0.00 0.00 0.00 0.00 0.00 0.00
0.00 0.00 0.00 0.00 0.00 0.00 0.00 0.00 0.00 0.00 0.00 0.00 0.00 0.00 0.00 0.00 0.00 0.00 0.00 0.00 0.00 0.00 0.00 0.00 0.00 0.00 0.00 0.00 0.00 0.00 0.00 0.00 0.00 0.00 0.00 0.00 0.00 0.00 0.00 0.00 0.00 0.00 0.00
0.00 0.00 0.00 0.00 0.00 0.00 0.00 0.00 0.00 0.00 0.00 0.00 0.00 0.00 0.00 0.00 0.00 0.00 0.00 0.00 0.00 0.00 0.00 0.00 0.00 0.00 0.00 0.00 0.00 0.00 0.00 0.00 0.00 0.00 0.00 0.00 0.00 0.00 0.00 0.00 0.00 0.00 0.00
0.00 0.00 0.00 0.00 0.00 0.00 0.00 0.00 0.00 0.00 0.00 0.00 0.00 0.00 0.00 0.00 0.00 0.00 0.00 0.00 0.00 0.00 0.00 0.00 0.00 0.00 0.00 0.00 0.00 0.00 0.00 0.00 0.00 0.00 0.00 0.00 0.00 0.00 0.00 0.00 0.00 0.00 0.00
MSLP
1014.76 1014.84 1015.18 1015.39 1015.56 1015.49 1015.27 1015.23 1015.19 1015.09 1015.17 1015.31 1015.47 1015.60 1015.88 1016.20 1016.41 1016.72 1016.97 1017.14 1017.34 1017.39 1017.49 1017.60 1017.70 1017.78 1017.92 1017.95 1017.93 1017.94 1017.91 1017.94 1017.91 1018.08 1018.20 1018.22 1018.50 1018.75 1018.83 1018.92 1018.90 1018.62 1019.09
1014.78 1015.03 1015.30 1015.38 1015.54 1015.50 1015.46 1015.19 1015.25 1015.47 1015.50 1015.60 1015.81 1015.92 1016.03 1016.32 1016.55 1016.83 1017.12 1017.29 1017.49 1017.58 1017.75 1017.83 1017.94 1018.08 1018.22 1018.31 1018.31 1018.19 1018.18 1018.16 1018.14 1018.15 1018.26 1018.30 1018.50 1018.76 1019.02 1019.18 1019.08 1019.06 1019.40
1015.14 1015.19 1015.36 1015.61 1015.79 1016.00 1015.77 1015.70 1015.62 1015.69 1015.86 1015.97 1016.07 1016.28 1016.37 1016.51 1016.73 1017.02 1017.17 1017.33 1017.51 1017.72 1017.89 1018.03 1018.16 1018.31 1018.44 1018.54 1018.54 1018.50 1018.45 1018.43 1018.44 1018.49 1018.51 1017.97 1018.16 1018.73 1018.87 1019.21 1019.36 1019.51 1019.66
1015.21 1015.29 1015.36 1015.56 1015.75 1015.90 1016.02 1015.91 1015.99 1016.18 1016.23 1016.29 1016.50 1016.63 1016.72 1016.76 1016.96 1017.14 1017.36 1017.44 1017.55 1017.74 1017.94 1018.11 1018.22 1018.36 1018.55 1018.68 1018.73 1018.72 1018.70 1018.75 1018.74 1018.73 1018.44 1018.42 1018.49 1018.96 1018.96 1019.18 1019.34 1019.63 1019.82
1015.82 1015.82 1015.86 1015.71 1015.79 1015.98 1016.12 1016.15 1016.35 1016.55 1016.77 1016.91 1016.79 1016.80 1016.84 1016.91 1017.11 1017.33 1017.45 1017.56 1017.69 1017.81 1017.94 1018.01 1018.16 1018.31 1018.54 1018.68 1018.79 1018.83 1018.82 1018.68 1018.76 1018.61 1018.44 1018.59 1018.65 1018.89 1019.00 1019.13 1019.31 1019.52 1019.70
1016.24 1016.22 1016.35 1016.19 1016.14 1016.22 1016.25 1016.34 1016.41 1016.62 1016.68 1016.93 1017.09 1017.11 1017.26 1017.29 1017.35 1017.45 1017.60 1017.69 1017.73 1017.86 1018.00 1018.20 1018.30 1018.47 1018.53 1018.59 1018.67 1018.83 1018.85 1018.77 1018.76 1018.35 1018.50 1018.64 1018.64 1018.91 1019.06 1019.15 1019.19 1019.31 1019.62
1016.68 1016.69 1016.61 1016.58 1016.45 1016.45 1016.54 1016.60 1016.64 1016.73 1016.86 1016.86 1017.11 1017.23 1017.25 1017.41 1017.45 1017.53 1017.65 1017.80 1017.87 1017.95 1018.03 1018.19 1018.30 1018.42 1018.59 1018.69 1018.82 1018.86 1018.86 1018.87 1018.49 1018.38 1018.53 1018.60 1018.71 1018.95 1018.94 1019.00 1019.22 1019.36 1019.43
1016.84 1016.91 1016.91 1016.85 1016.78 1016.69 1016.70 1016.83 1016.91 1016.93 1016.92 1017.02 1017.11 1017.24 1017.22 1017.29 1017.38 1017.50 1017.54 1017.69 1017.80 1017.91 1018.05 1018.10 1018.14 1018.25 1018.43 1018.62 1018.75 1018.81 1018.90 1019.00 1018.79 1018.45 1018.46 1018.44 1018.73 1018.96 1018.93 1018.92 1018.96 1019.11 1019.32
1017.23 1017.32 1017.29 1017.09 1016.93 1017.00 1016.96 1017.00 1017.01 1017.02 1017.08 1017.15 1017.24 1017.38 1017.45 1017.42 1017.44 1017.56 1017.60 1017.71 1017.81 1017.87 1017.97 1018.06 1018.18 1018.18 1018.13 1018.22 1018.26 1018.37 1018.49 1018.71 1018.59 1018.33 1018.34 1018.17 1018.52 1018.81 1018.75 1018.62 1018.65 1018.86 1019.08
1017.57 1017.52 1017.52 1017.40 1017.23 1017.18 1017.08 1017.14 1017.26 1017.36 1017.43 1017.43 1017.42 1017.50 1017.56 1017.51 1017.54 1017.59 1017.55 1017.64 1017.71 1017.76 1017.86 1017.97 1018.09 1018.15 1018.14 1018.10 1018.09 1018.08 1018.10 1018.09 1018.03 1018.04 1017.99 1017.94 1018.33 1018.47 1018.56 1018.64 1018.60 1018.61 1018.72
1017.95 1017.93 1017.78 1017.68 1017.56 1017.45 1017.50 1017.59 1017.61 1017.73 1017.76 1017.67 1017.58 1017.70 1017.57 1017.58 1017.45 1017.40 1017.77 1017.76 1017.79 1017.86 1017.84 1017.87 1017.96 1018.09 1018.16 1018.18 1018.12 1018.11 1018.13 1017.75 1017.68 1017.56 1017.59 1017.77 1018.17 1018.11 1018.00 1017.91 1018.09 1018.29 1018.26
1018.27 1018.29 1018.13 1018.09 1017.85 1017.65 1017.66 1017.88 1017.89 1017.97 1018.15 1018.14 1018.00 1018.08 1018.06 1018.08 1017.99 1017.92 1018.12 1018.09 1018.08 1018.00 1017.98 1017.89 1017.82 1017.87 1017.82 1017.85 1017.79 1017.93 1017.86 1017.75 1017.47 1017.32 1017.07 1017.37 1017.66 1017.68 1017.55 1017.43 1017.38 1017.45 1017.76
1018.48 1018.64 1018.65 1018.45 1018.38 1017.91 1018.01 1018.01 1018.16 1018.36 1018.43 1018.62 1018.71 1018.62 1018.59 1018.55 1018.45 1018.46 1018.57 1018.55 1018.44 1018.43 1018.22 1017.96 1017.85 1017.75 1017.68 1017.55 1017.46 1017.44 1017.42 1017.43 1017.21 1016.77 1016.54 1016.91 1017.21 1017.31 1017.20 1017.01 1016.87 1016.81 1017.03
1018.49 1018.69 1018.82 1018.76 1018.58 1018.55 1018.46 1018.49 1018.59 1018.72 1018.98 1019.15 1019.43 1019.27 1019.04 1019.05 1019.13 1019.29 1019.33 1019.39 1019.32 1019.18 1019.02 1018.82 1018.59 1018.19 1018.03 1017.91 1017.71 1017.50 1017.27 1017.02 1016.73 1016.57 1016.26 1016.56 1016.74 1016.73 1016.57 1016.46 1016.26 1016.47 1016.61
1018.50 1018.77 1018.77 1018.62 1018.78 1018.90 1018.92 1019.16 1019.28 1019.39 1019.63 1019.87 1019.90 1019.91 1019.57 1019.51 1019.67 1019.79 1019.89 1019.81 1019.81 1019.77 1019.67 1019.47 1019.19 1018.78 1018.46 1018.35 1018.15 1017.97 1017.67 1017.29 1016.95 1016.72 1016.46 1016.45 1016.49 1016.33 1016.14 1015.96 1015.92 1015.97 1016.25
1018.60 1018.78 1019.00 1019.11 1019.16 1019.31 1019.50 1019.78 1020.02 1020.19 1020.40 1020.36 1020.51 1020.65 1020.42 1020.15 1020.03 1019.99 1020.13 1020.05 1019.92 1020.01 1020.02 1019.77 1019.51 1019.33 1019.08 1018.80 1018.36 1018.19 1018.02 1017.72 1017.27 1016.91 1016.58 1016.20 1016.27 1016.11 1015.85 1015.75 1015.77 1015.75 1015.83
1018.65 1019.04 1019.33 1019.31 1019.52 1019.72 1019.93 1020.28 1020.59 1020.78 1021.01 1021.14 1021.15 1021.26 1021.14 1020.83 1020.74 1020.58 1020.52 1020.47 1020.58 1020.61 1020.35 1020.10 1019.80 1019.47 1019.13 1018.84 1018.46 1018.23 1017.93 1017.58 1017.22 1016.99 1016.83 1016.50 1016.10 1015.98 1015.87 1015.79 1015.70 1015.74 1015.65
1018.57 1018.99 1019.16 1019.42 1019.77 1020.07 1020.33 1020.64 1020.97 1021.23 1021.35 1021.59 1021.67 1021.77 1021.75 1021.54 1021.45 1021.15 1020.94 1021.06 1021.15 1021.01 1020.72 1020.34 1020.11 1019.73 1019.44 1019.16 1018.72 1018.22 1017.90 1017.51 1017.13 1016.89 1016.59 1016.42 1016.10 1015.91 1015.73 1015.76 1015.78 1015.79 1015.63
1018.83 1019.04 1019.16 1019.58 1019.87 1020.35 1020.73 1021.03 1021.43 1021.76 1021.88 1022.16 1022.21 1022.25 1022.34 1022.13 1021.98 1021.63 1021.52 1021.56 1021.49 1021.27 1021.15 1020.91 1020.48 1020.22 1019.67 1019.35 1018.83 1018.15 1017.72 1017.33 1017.07 1016.72 1016.45 1016.30 1016.06 1016.10 1016.06 1015.77 1015.69 1015.64 1015.47
1018.93 1019.03 1019.22 1019.79 1020.02 1020.41 1020.91 1021.29 1021.60 1021.94 1022.31 1022.54 1022.65 1022.78 1022.75 1022.69 1022.51 1022.12 1022.01 1022.03 1021.80 1021.57 1021.42 1021.20 1020.88 1020.53 1020.15 1019.85 1019.02 1018.23 1017.65 1017.27 1016.92 1016.70 1016.53 1016.30 1016.69 1016.62 1016.75 1016.51 1016.38 1016.06 1015.63
1018.95 1019.12 1019.28 1019.83 1020.09 1020.20 1020.81 1021.07 1021.53 1021.91 1022.43 1022.77 1023.00 1023.09 1022.99 1022.92 1022.77 1022.53 1022.34 1022.27 1022.12 1021.97 1021.87 1021.48 1020.96 1020.71 1020.32 1020.13 1019.06 1018.17 1017.45 1017.49 1017.44 1017.38 1017.29 1017.30 1017.11 1017.17 1017.50 1017.08 1016.80 1016.62 1016.11
1018.51 1018.91 1019.43 1019.71 1020.13 1020.41 1020.84 1021.18 1021.49 1022.03 1022.66 1022.99 1023.17 1023.28 1023.25 1023.15 1023.07 1022.86 1022.76 1022.65 1022.55 1022.19 1022.14 1021.90 1021.56 1021.02 1020.74 1020.68 1020.36 1019.45 1018.33 1017.42 1017.50 1017.79 1017.69 1017.86 1018.03 1018.02 1017.81 1017.68 1017.32 1016.97 1016.61
1018.26 1018.66 1019.12 1019.61 1019.99 1020.42 1020.96 1021.36 1021.90 1022.40 1022.71 1022.99 1023.34 1023.52 1023.69 1023.62 1023.50 1023.32 1023.19 1023.04 1022.88 1022.88 1022.85 1022.66 1022.35 1021.99 1021.20 1021.11 1021.09 1020.77 1020.26 1019.49 1019.07 1017.76 1018.17 1018.24 1018.34 1018.40 1018.25 1017.89 1017.61 1017.46 1017.43
1018.22 1018.67 1019.19 1019.70 1019.99 1020.49 1020.82 1021.22 1021.47 1021.78 1022.35 1023.20 1023.63 1023.82 1023.87 1023.95 1023.92 1023.87 1023.69 1023.61 1023.53 1023.40 1023.28 1022.89 1022.54 1022.16 1021.67 1021.63 1021.51 1021.97 1022.08 1021.72 1020.61 1019.14 1018.50 1018.30 1018.69 1018.44 1018.36 1018.14 1017.78 1017.69 1017.75
1017.88 1018.79 1019.24 1019.87 1020.34 1020.71 1020.95 1021.22 1021.55 1022.02 1022.82 1023.47 1023.85 1024.04 1024.22 1024.33 1024.38 1024.44 1024.25 1024.23 1024.07 1023.80 1023.62 1023.27 1022.81 1022.38 1022.13 1022.06 1022.48 1022.61 1022.31 1021.94 1021.66 1021.28 1019.88 1019.52 1019.16 1018.91 1018.64 1017.93 1018.02 1018.05 1017.96
1017.62 1018.56 1019.01 1019.60 1020.33 1020.81 1021.06 1021.40 1021.75 1022.30 1023.07 1023.45 1023.87 1024.03 1024.43 1024.83 1024.90 1024.95 1024.81 1024.67 1024.38 1024.10 1023.88 1023.65 1023.53 1023.44 1023.46 1023.55 1023.64 1023.28 1023.32 1023.00 1022.83 1022.47 1021.50 1020.86 1020.08 1019.11 1019.11 1017.84 1018.28 1018.49 1018.47
Thickness
5760 5759 5755 5752 5750 5751 5752 5752 5751 5752 5751 5750 5748 5746 5742 5738 5736 5732 5728 5726 5723 5722 5720 5719 5718 5716 5715 5715 5715 5716 5715 5715 5714 5712 5711 5710 5707 5704 5704 5703 5702 5702 5699
5758 5756 5754 5751 5748 5750 5749 5751 5751 5748 5747 5746 5743 5742 5740 5736 5733 5729 5726 5724 5721 5719 5716 5715 5714 5713 5711 5710 5710 5711 5711 5711 5710 5709 5709 5708 5706 5704 5702 5700 5700 5699 5695
5753 5752 5750 5748 5745 5743 5746 5745 5746 5745 5742 5740 5739 5737 5735 5734 5731 5727 5725 5723 5720 5717 5715 5713 5711 5709 5708 5707 5707 5707 5707 5707 5707 5705 5705 5707 5707 5703 5703 5699 5697 5695 5692
5748 5747 5747 5746 5744 5742 5740 5740 5739 5736 5736 5735 5733 5731 5730 5729 5727 5724 5722 5721 5719 5716 5713 5711 5709 5708 5706 5705 5705 5705 5704 5703 5702 5702 5704 5703 5702 5700 5700 5698 5697 5693 5690
5738 5738 5738 5740 5740 5738 5737 5735 5733 5730 5728 5726 5727 5726 5726 5725 5723 5720 5718 5717 5715 5713 5711 5710 5708 5707 5705 5704 5703 5702 5702 5703 5702 5702 5703 5701 5700 5698 5698 5697 5696 5693 5691
5730 5731 5730 5733 5734 5733 5732 5730 5729 5727 5727 5723 5721 5721 5720 5719 5718 5716 5715 5713 5712 5709 5707 5705 5704 5703 5703 5703 5703 5701 5700 5701 5701 5701 5701 5700 5700 5698 5695 5695 5694 5692 5690
5724 5724 5724 5726 5727 5727 5726 5725 5724 5724 5722 5721 5718 5717 5716 5715 5714 5713 5711 5709 5707 5706 5704 5702 5701 5700 5699 5699 5698 5698 5698 5697 5698 5699 5698 5697 5697 5696 5695 5694 5692 5691 5690
5721 5719 5720 5720 5721 5722 5722 5720 5719 5718 5718 5717 5716 5713 5713 5712 5710 5709 5708 5706 5704 5703 5702 5700 5698 5698 5696 5696 5695 5695 5694 5694 5694 5696 5696 5695 5694 5692 5692 5692 5692 5690 5688
5715 5714 5714 5716 5717 5716 5716 5715 5715 5714 5713 5712 5711 5708 5707 5707 5706 5704 5704 5702 5701 5700 5699 5697 5695 5694 5695 5695 5695 5695 5695 5693 5692 5693 5693 5694 5691 5690 5690 5691 5691 5689 5687
5711 5711 5710 5711 5711 5711 5712 5711 5710 5708 5707 5705 5705 5703 5702 5702 5701 5700 5700 5699 5698 5697 5696 5694 5692 5691 5691 5692 5693 5693 5694 5694 5692 5692 5692 5692 5689 5687 5687 5686 5687 5687 5686
5703 5704 5705 5705 5705 5705 5704 5703 5703 5701 5700 5699 5699 5698 5697 5697 5697 5697 5695 5695 5694 5694 5693 5692 5690 5688 5687 5687 5688 5688 5689 5691 5691 5691 5690 5689 5687 5687 5686 5687 5686 5685 5685
5695 5696 5697 5697 5698 5700 5699 5697 5696 5694 5691 5691 5692 5691 5690 5690 5690 5690 5689 5689 5688 5689 5689 5688 5688 5687 5686 5684 5684 5683 5683 5684 5686 5687 5688 5687 5685 5685 5686 5686 5686 5685 5682
5689 5687 5687 5689 5688 5692 5690 5690 5688 5686 5683 5681 5681 5681 5681 5681 5682 5682 5681 5680 5680 5680 5681 5683 5682 5682 5681 5681 5680 5680 5680 5680 5681 5684 5686 5683 5682 5681 5682 5684 5686 5684 5681
5684 5681 5680 5679 5681 5682 5681 5679 5678 5676 5673 5671 5669 5669 5670 5670 5670 5669 5670 5669 5669 5670 5670 5671 5672 5673 5674 5673 5673 5673 5675 5676 5678 5679 5681 5679 5678 5678 5679 5681 5683 5681 5678
5678 5676 5676 5675 5672 5672 5671 5668 5665 5664 5661 5659 5658 5658 5659 5658 5658 5658 5658 5658 5658 5659 5659 5660 5661 5663 5664 5664 5664 5664 5665 5667 5669 5670 5671 5671 5671 5673 5675 5677 5677 5677 5672
5670 5668 5667 5665 5663 5660 5658 5655 5652 5650 5648 5648 5647 5645 5646 5648 5648 5649 5648 5648 5648 5648 5648 5649 5651 5652 5653 5655 5656 5656 5656 5657 5660 5662 5663 5665 5664 5665 5668 5669 5668 5668 5666
5662 5658 5657 5655 5652 5649 5646 5643 5641 5638 5636 5635 5635 5634 5635 5637 5637 5637 5637 5637 5636 5636 5638 5638 5640 5643 5644 5646 5648 5648 5649 5651 5653 5653 5653 5654 5656 5657 5657 5658 5659 5658 5658
5656 5651 5649 5644 5641 5638 5634 5631 5629 5627 5626 5625 5624 5623 5623 5624 5624 5625 5626 5625 5624 5625 5627 5629 5630 5633 5635 5635 5637 5639 5640 5643 5644 5645 5646 5646 5646 5646 5647 5646 5646 5647 5647
5647 5642 5638 5634 5633 5628 5624 5622 5618 5615 5614 5612 5611 5611 5610 5612 5613 5614 5615 5614 5614 5615 5615 5617 5620 5621 5624 5625 5627 5631 5632 5633 5634 5636 5636 5635 5635 5634 5632 5633 5632 5631 5633
5639 5634 5630 5624 5622 5618 5614 5611 5609 5606 5603 5601 5600 5599 5599 5600 5601 5602 5603 5602 5603 5604 5605 5605 5607 5609 5610 5610 5615 5618 5621 5622 5622 5622 5621 5621 5616 5615 5613 5614 5613 5614 5618
5629 5624 5620 5614 5613 5612 5606 5605 5601 5598 5594 5591 5589 5589 5589 5589 5590 5591 5591 5591 5591 5590 5590 5593 5596 5597 5598 5598 5606 5609 5610 5607 5604 5601 5598 5594 5596 5594 5591 5594 5593 5592 5597
5624 5617 5611 5607 5605 5603 5599 5596 5593 5589 5583 5581 5579 5578 5578 5578 5578 5579 5578 5578 5577 5578 5578 5579 5580 5583 5582 5581 5581 5586 5593 5594 5587 5582 5580 5575 5571 5568 5569 5570 5572 5572 5572
5616 5610 5606 5601 5598 5594 5589 5586 5581 5577 5575 5572 5569 5567 5565 5565 5565 5566 5565 5565 5564 5563 5561 5560 5561 5561 5566 5562 5561 5560 5560 5564 5557 5564 5558 5553 5549 5546 5544 5546 5549 5549 5549
5606 5602 5598 5593 5589 5583 5582 5579 5577 5576 5571 5561 5557 5554 5553 5552 5551 5550 5550 5549 5548 5547 5545 5545 5546 5547 5548 5543 5538 5530 5525 5523 5530 5540 5536 5533 5528 5525 5522 5520 5523 5526 5527
5599 5592 5589 5583 5577 5574 5572 5570 5567 5562 5554 5548 5545 5543 5540 5538 5536 5534 5535 5533 5532 5531 5530 5529 5530 5530 5528 5525 5516 5507 5504 5504 5501 5497 5510 5503 5495 5494 5495 5496 5498 5500 5506
5591 5584 5581 5576 5568 5564 5561 5558 5555 5549 5541 5538 5534 5532 5528 5523 5521 5520 5519 5517 5517 5516 5514 5512 5509 5505 5501 5497 5491 5488 5481 5475 5466 5460 5464 5466 5470 5467 5467 5478 5479 5481 5486